Flag for Russia Weather past 2 weeks in Astrakhan, Russia

Now
46 °F

Clear.


Feels Like: 40 °F
Forecast: 32 / 54 °F
Wind: 15 mph from Southeast

Location: Astrakhan

Current Time: Apr 1, 2015 at 4:59:50 PM

Latest Report: Apr 1, 2015 at 4:30 PM


Visibility: 5 mi

Pressure: 30.04 "Hg

Humidity: 18%

Dew point: 5 °F

Location of AstrakhanLocation

Historic Weather in Astrakhan — Graph

°F

Astrakhan temperature yesterday

Maximum temperature yesterday: 37 °F (at 12:00 PM)
Minimum temperature yesterday: 30 °F (at 11:30 PM)
Average temperature yesterday: 34 °F

Past Weeks' High & Low Weather Summary

 TemperatureHumidityPressure
High63 °F (Mar 27, 1:00 PM)93% (Mar 21, 12:30 AM)30.60 "Hg (Mar 21, 12:30 AM)
Low25 °F (Mar 24, 6:00 AM)17% (Apr 1, 12:30 PM)29.80 "Hg (Mar 21, 12:30 PM)
Average39 °F59%30.25 "Hg
* Reported Mar 17 3:00 PM — Apr 1 3:30 PM, Astrakhan, Weather by CustomWeather, © 2015

Note: Actual official high and low records may vary slightly from our data, if they occured in-between our weather recording intervals... More about our weather records

Advertising

Astrakhan weather history for previous 24 hours

 ConditionsComfort  
Time TempWeatherWind HumidityBarometerVisibility
3:30 PM
Wed, Apr 1
48 °FSunny.15 mph17%30.04 "Hg10 mi
3:00 PM48 °FSunny.17 mph17%30.04 "Hg10 mi
2:30 PM48 °FPassing clouds.17 mph17%30.01 "HgN/A
2:00 PM48 °FSunny.17 mph18%30.04 "Hg10 mi
1:30 PM48 °FDuststorm.20 mph18%30.04 "Hg5 mi
1:00 PM48 °FDuststorm.20 mph17%30.04 "Hg4 mi
12:30 PM48 °FDuststorm.20 mph17%30.04 "Hg3 mi
12:00 PM48 °FDuststorm.20 mph18%30.04 "Hg3 mi
11:30 AM46 °FDuststorm.17 mph25%30.04 "Hg3 mi
11:00 AM46 °FDuststorm.15 mph23%30.07 "Hg3 mi
10:30 AM45 °FHaze.13 mph27%30.07 "Hg2 mi
10:00 AM45 °FClear.13 mph31%30.07 "Hg4 mi
9:30 AM41 °FPassing clouds.10 mph39%30.07 "HgN/A
9:00 AM41 °FSunny.10 mph53%30.07 "Hg10 mi
8:30 AM39 °FSunny.8 mph61%30.07 "Hg10 mi
8:00 AM36 °FSunny.10 mph70%30.07 "Hg10 mi
7:30 AM34 °FSunny.8 mph75%30.09 "Hg10 mi
7:00 AM30 °FSunny.8 mph86%30.09 "Hg10 mi
6:30 AM28 °FSunny.6 mph86%30.09 "Hg10 mi
5:30 AM28 °FClear.8 mph80%30.09 "Hg10 mi
5:00 AM27 °FClear.6 mph86%30.09 "Hg10 mi
4:30 AM30 °FClear.10 mph75%30.09 "Hg10 mi
4:00 AM30 °FClear.10 mph75%30.07 "Hg10 mi
3:30 AM30 °FClear.10 mph75%30.07 "Hg10 mi
3:00 AM28 °FClear.10 mph74%30.09 "Hg10 mi
2:30 AM28 °FClear.10 mph74%30.09 "Hg10 mi
2:00 AM28 °FClear.8 mph74%30.09 "Hg10 mi
1:30 AM30 °FClear.10 mph69%30.09 "Hg10 mi
1:00 AM30 °FClear.10 mph69%30.12 "Hg10 mi
12:30 AM30 °FClear.10 mph64%30.12 "Hg10 mi
12:00 AM30 °FClear.8 mph64%30.12 "Hg10 mi
11:30 PM
Tue, Mar 31
30 °FClear.6 mph64%30.15 "Hg10 mi
11:00 PM32 °FClear.6 mph55%30.15 "Hg10 mi
10:30 PM32 °FClear.8 mph55%30.15 "Hg10 mi
10:00 PM34 °FClear.10 mph51%30.12 "Hg10 mi
9:30 PM34 °FClear.10 mph51%30.15 "Hg10 mi
9:00 PM34 °FClear.10 mph51%30.15 "Hg10 mi
8:30 PM34 °FClear.10 mph51%30.18 "Hg10 mi
8:00 PM34 °FClear.10 mph48%30.18 "Hg10 mi
7:30 PM34 °FClear.10 mph48%30.18 "Hg10 mi
7:00 PM34 °FSunny.13 mph48%30.18 "Hg10 mi
6:30 PM34 °FSunny.13 mph48%30.18 "Hg10 mi
6:00 PM34 °FSunny.15 mph48%30.18 "Hg10 mi
5:30 PM36 °FSunny.20 mph44%30.21 "Hg10 mi
5:00 PM36 °FDuststorm.17 mph38%30.18 "Hg5 mi
4:30 PM36 °FDuststorm.20 mph38%30.18 "Hg4 mi
4:00 PM37 °FSunny.20 mph35%30.18 "Hg10 mi
Weather by CustomWeather, © 2015

See weather overviewHow to use our weather pages